FDX436 KMIA-KJFK

Flight info

Callsign FDX436
Flight time 2h 19m
Altitude 35000
Route FOLZZ3 ALYRA PELCN Y309 FLRDA SAGGY CHIEZ Q161 KALDA Q108 SIE CAMRN5
Aircraft B77L/H-SDE1E2E3FGHIJ2J3J4J5M1RWXY/LB1D1

Departure

Time 2026-05-05 03:45
Airport Miami International Airport (KMIA)

Arrival

Time 2026-05-05 06:05
Airport John F. Kennedy International Airport (KJFK)
Time Latitude Longitude Altitude Speed Heading
2026-05-05 03:03 25.80511 -80.29510 22 ft 0 kts 359°
2026-05-05 03:25 25.80453 -80.29499 21 ft 10 kts 330°
2026-05-05 03:25 25.80430 -80.29446 21 ft 0 kts 268°
2026-05-05 03:30 25.80430 -80.29459 21 ft 5 kts 267°
2026-05-05 03:30 25.80427 -80.29511 21 ft 7 kts 267°
2026-05-05 03:30 25.80424 -80.29590 26 ft 12 kts 267°
2026-05-05 03:30 25.80420 -80.29684 24 ft 12 kts 267°
2026-05-05 03:31 25.80416 -80.29778 27 ft 13 kts 267°
2026-05-05 03:31 25.80412 -80.29879 26 ft 14 kts 267°
2026-05-05 03:31 25.80408 -80.29983 25 ft 13 kts 267°
2026-05-05 03:31 25.80404 -80.30077 22 ft 8 kts 267°
2026-05-05 03:32 25.80404 -80.30090 22 ft 0 kts 267°
2026-05-05 03:43 25.80388 -80.30131 24 ft 12 kts 231°
2026-05-05 03:43 25.80278 -80.30145 21 ft 14 kts 174°
2026-05-05 03:43 25.80177 -80.30138 19 ft 10 kts 177°
2026-05-05 03:44 25.80108 -80.30134 19 ft 9 kts 177°
2026-05-05 03:44 25.80072 -80.30103 19 ft 7 kts 96°
2026-05-05 03:44 25.80077 -80.29987 16 ft 34 kts 87°
2026-05-05 03:44 25.80099 -80.29452 20 ft 103 kts 88°
2026-05-05 03:45 25.80141 -80.28435 21 ft 159 kts 87°
2026-05-05 03:45 25.80195 -80.27067 196 ft 185 kts 86°
2026-05-05 03:45 25.80196 -80.25642 761 ft 184 kts 98°
2026-05-05 03:45 25.79750 -80.24315 1349 ft 184 kts 116°
2026-05-05 03:46 25.79140 -80.23044 1938 ft 191 kts 116°
2026-05-05 03:46 25.78484 -80.21645 2176 ft 219 kts 116°
2026-05-05 03:46 25.77753 -80.20061 2448 ft 245 kts 116°
2026-05-05 03:46 25.76966 -80.18344 3137 ft 254 kts 117°
2026-05-05 03:47 25.76115 -80.16588 3874 ft 262 kts 118°
2026-05-05 03:47 25.75218 -80.14785 4605 ft 271 kts 119°
2026-05-05 03:47 25.74349 -80.12904 5278 ft 278 kts 110°
2026-05-05 03:47 25.74213 -80.10760 5920 ft 286 kts 76°
2026-05-05 03:48 25.75133 -80.08832 6690 ft 285 kts 49°
2026-05-05 03:48 25.76455 -80.07152 7288 ft 293 kts 47°
2026-05-05 03:48 25.77817 -80.05443 8034 ft 298 kts 47°
2026-05-05 03:48 25.79187 -80.03727 8754 ft 304 kts 47°
2026-05-05 03:49 25.80600 -80.01956 9504 ft 309 kts 47°
2026-05-05 03:49 25.82036 -80.00152 10225 ft 315 kts 47°
2026-05-05 03:49 25.83522 -79.98282 10597 ft 335 kts 47°
2026-05-05 03:49 25.85120 -79.96266 10783 ft 360 kts 47°
2026-05-05 03:50 25.86830 -79.94102 10968 ft 386 kts 47°
2026-05-05 03:50 25.88634 -79.91812 11397 ft 401 kts 47°
2026-05-05 03:50 25.90491 -79.89450 12063 ft 410 kts 47°
2026-05-05 03:50 25.92376 -79.87049 12934 ft 414 kts 47°
2026-05-05 03:51 25.94274 -79.84628 13773 ft 418 kts 47°
2026-05-05 03:51 25.96169 -79.82210 14432 ft 424 kts 46°
2026-05-05 03:51 25.98119 -79.79724 15099 ft 430 kts 46°
2026-05-05 03:51 26.00095 -79.77203 15752 ft 436 kts 46°
2026-05-05 03:52 26.02096 -79.74647 16449 ft 441 kts 46°
2026-05-05 03:52 26.04121 -79.72060 17123 ft 446 kts 46°
2026-05-05 03:52 26.06169 -79.69442 17800 ft 451 kts 45°
2026-05-05 03:52 26.08238 -79.66796 18436 ft 456 kts 45°
2026-05-05 03:53 26.10334 -79.64116 19000 ft 461 kts 45°
2026-05-05 03:53 26.12361 -79.61325 19577 ft 467 kts 50°
2026-05-05 03:53 26.14229 -79.58401 20155 ft 472 kts 52°
2026-05-05 03:53 26.16078 -79.55365 20752 ft 476 kts 52°
2026-05-05 03:54 26.17943 -79.52300 21304 ft 480 kts 52°
2026-05-05 03:54 26.19844 -79.49227 21916 ft 483 kts 52°
2026-05-05 03:54 26.21777 -79.46150 22483 ft 487 kts 51°
2026-05-05 03:54 26.23741 -79.43053 23011 ft 491 kts 51°
2026-05-05 03:55 26.25725 -79.39929 23440 ft 498 kts 51°
2026-05-05 03:55 26.27735 -79.36768 23841 ft 500 kts 50°
2026-05-05 03:55 26.29995 -79.33912 24208 ft 496 kts 35°
2026-05-05 03:55 26.32814 -79.31780 24615 ft 487 kts 25°
2026-05-05 03:56 26.35735 -79.29830 25053 ft 491 kts 25°
2026-05-05 03:56 26.38664 -79.27856 25547 ft 494 kts 26°
2026-05-05 03:56 26.41594 -79.25844 26052 ft 496 kts 26°
2026-05-05 03:56 26.44524 -79.23796 26545 ft 498 kts 26°
2026-05-05 03:57 26.47456 -79.21720 27038 ft 501 kts 26°
2026-05-05 03:57 26.50404 -79.19617 27472 ft 505 kts 27°
2026-05-05 03:57 26.53369 -79.17495 27906 ft 508 kts 27°
2026-05-05 03:57 26.56349 -79.15359 28345 ft 510 kts 26°
2026-05-05 03:58 26.59344 -79.13212 28778 ft 513 kts 26°
2026-05-05 03:58 26.62316 -79.11083 29172 ft 516 kts 26°
2026-05-05 03:58 26.65345 -79.08912 29559 ft 518 kts 26°
2026-05-05 03:58 26.68387 -79.06732 29940 ft 521 kts 26°
2026-05-05 03:59 26.71441 -79.04542 30321 ft 523 kts 26°
2026-05-05 03:59 26.74507 -79.02342 30635 ft 524 kts 26°
2026-05-05 03:59 26.77578 -79.00136 31106 ft 524 kts 26°
2026-05-05 03:59 26.80633 -78.97938 31628 ft 520 kts 26°
2026-05-05 04:00 26.83668 -78.95752 32181 ft 517 kts 26°
2026-05-05 04:00 26.86637 -78.93614 32702 ft 513 kts 26°
2026-05-05 04:00 26.89627 -78.91460 33214 ft 510 kts 26°
2026-05-05 04:00 26.92613 -78.89310 33680 ft 508 kts 26°
2026-05-05 04:01 26.95579 -78.87174 34092 ft 507 kts 25°
2026-05-05 04:01 26.98544 -78.85037 34432 ft 506 kts 25°
2026-05-05 04:01 27.01506 -78.82902 34721 ft 506 kts 25°
2026-05-05 04:01 27.04471 -78.80763 35005 ft 508 kts 25°
2026-05-05 04:02 27.10450 -78.76446 35071 ft 511 kts 25°
2026-05-05 04:02 27.16354 -78.72166 35061 ft 505 kts 25°
2026-05-05 04:03 27.22249 -78.67894 35057 ft 504 kts 25°
2026-05-05 04:03 27.28205 -78.63772 35065 ft 497 kts 16°
2026-05-05 04:04 27.31455 -78.62682 35067 ft 480 kts 358°
2026-05-05 04:04 27.34760 -78.62355 35088 ft 479 kts 357°
2026-05-05 04:04 27.41425 -78.61651 35088 ft 488 kts 358°
2026-05-05 04:05 27.48180 -78.60807 35074 ft 486 kts 359°
2026-05-05 04:05 27.54841 -78.59924 35074 ft 479 kts 359°
2026-05-05 04:06 27.61471 -78.59055 35115 ft 480 kts 359°
2026-05-05 04:06 27.68072 -78.58198 35087 ft 481 kts 359°
2026-05-05 04:07 27.74731 -78.57332 35084 ft 482 kts 359°
2026-05-05 04:07 27.81401 -78.56463 35082 ft 483 kts 359°
2026-05-05 04:08 27.88083 -78.55591 35085 ft 484 kts 359°
2026-05-05 04:08 27.94778 -78.54716 35093 ft 485 kts 359°
2026-05-05 04:09 28.01488 -78.53838 35089 ft 486 kts 359°
2026-05-05 04:09 28.08158 -78.52964 35089 ft 486 kts 359°
2026-05-05 04:10 28.14876 -78.52082 35083 ft 486 kts 359°
2026-05-05 04:10 28.21597 -78.51199 35095 ft 487 kts 359°
2026-05-05 04:11 28.28323 -78.50315 35093 ft 487 kts 359°
2026-05-05 04:11 28.35001 -78.49435 35095 ft 486 kts 359°
2026-05-05 04:12 28.41724 -78.48548 35095 ft 486 kts 359°
2026-05-05 04:12 28.48446 -78.47661 35121 ft 486 kts 359°
2026-05-05 04:13 28.55176 -78.46772 35103 ft 487 kts 359°
2026-05-05 04:13 28.61907 -78.45881 35097 ft 487 kts 359°
2026-05-05 04:14 28.68594 -78.44994 35098 ft 487 kts 359°
2026-05-05 04:14 28.75323 -78.44101 35140 ft 487 kts 359°
2026-05-05 04:15 28.82064 -78.43206 35109 ft 488 kts 359°
2026-05-05 04:15 28.88813 -78.42308 35108 ft 488 kts 359°
2026-05-05 04:16 28.95519 -78.41415 35103 ft 489 kts 359°
2026-05-05 04:16 29.02272 -78.40514 35106 ft 489 kts 359°
2026-05-05 04:17 29.09037 -78.39610 35116 ft 490 kts 359°
2026-05-05 04:17 29.15811 -78.38704 35114 ft 490 kts 359°
2026-05-05 04:18 29.22543 -78.37802 35115 ft 490 kts 359°
2026-05-05 04:18 29.29325 -78.36892 35115 ft 490 kts 359°
2026-05-05 04:19 29.36106 -78.35982 35116 ft 491 kts 359°
2026-05-05 04:19 29.42895 -78.35069 35117 ft 491 kts 359°
2026-05-05 04:20 29.49631 -78.34227 35111 ft 486 kts 354°
2026-05-05 04:20 29.56287 -78.34568 35122 ft 476 kts 347°
2026-05-05 04:21 29.62886 -78.35260 35131 ft 477 kts 347°
2026-05-05 04:21 29.69519 -78.35847 35124 ft 479 kts 348°
2026-05-05 04:22 29.76171 -78.36346 35115 ft 479 kts 348°
2026-05-05 04:22 29.82781 -78.36824 35120 ft 479 kts 348°
2026-05-05 04:23 29.89436 -78.37312 35165 ft 479 kts 348°
2026-05-05 04:23 29.96096 -78.37806 35133 ft 480 kts 348°
2026-05-05 04:24 30.02762 -78.38301 35124 ft 480 kts 348°
2026-05-05 04:25 30.12717 -78.38971 35124 ft 483 kts 352°
2026-05-05 04:25 30.19494 -78.38316 35136 ft 493 kts 360°
2026-05-05 04:26 30.26292 -78.37195 35121 ft 493 kts 360°
2026-05-05 04:26 30.33089 -78.36131 35129 ft 493 kts 359°
2026-05-05 04:27 30.39887 -78.35106 35128 ft 493 kts 359°
2026-05-05 04:27 30.46635 -78.33798 35131 ft 498 kts
2026-05-05 04:28 30.53450 -78.32182 35135 ft 501 kts
2026-05-05 04:28 30.60293 -78.30553 35133 ft 503 kts
2026-05-05 04:29 30.67166 -78.28950 35134 ft 504 kts
2026-05-05 04:29 30.74055 -78.27353 35167 ft 506 kts
2026-05-05 04:30 30.80922 -78.25757 35137 ft 507 kts
2026-05-05 04:30 30.87836 -78.24145 35136 ft 506 kts
2026-05-05 04:31 30.94734 -78.22538 35132 ft 505 kts
2026-05-05 04:31 31.01620 -78.20995 35137 ft 504 kts
2026-05-05 04:32 31.08495 -78.19478 35135 ft 502 kts
2026-05-05 04:32 31.15308 -78.17963 35131 ft 501 kts
2026-05-05 04:33 31.22155 -78.16432 35137 ft 501 kts
2026-05-05 04:33 31.29000 -78.14899 35143 ft 501 kts
2026-05-05 04:34 31.35847 -78.13363 35138 ft 501 kts
2026-05-05 04:34 31.42685 -78.11827 35133 ft 500 kts
2026-05-05 04:35 31.49531 -78.10511 35132 ft 497 kts
2026-05-05 04:35 31.56333 -78.09420 35141 ft 497 kts
2026-05-05 04:36 31.63194 -78.08305 35136 ft 497 kts
2026-05-05 04:36 31.70040 -78.07147 35132 ft 497 kts
2026-05-05 04:37 31.76884 -78.05969 35136 ft 497 kts
2026-05-05 04:37 31.83676 -78.04796 35139 ft 497 kts
2026-05-05 04:38 31.90513 -78.03617 35132 ft 496 kts
2026-05-05 04:38 31.97347 -78.02437 35135 ft 496 kts
2026-05-05 04:39 32.04176 -78.01258 35133 ft 496 kts
2026-05-05 04:39 32.10963 -78.00084 35139 ft 496 kts
2026-05-05 04:40 32.17794 -77.98899 35130 ft 496 kts
2026-05-05 04:40 32.24621 -77.97713 35129 ft 496 kts
2026-05-05 04:41 32.31441 -77.96527 35149 ft 495 kts
2026-05-05 04:41 32.38209 -77.95349 35130 ft 495 kts
2026-05-05 04:42 32.45023 -77.94160 35134 ft 494 kts
2026-05-05 04:42 32.51830 -77.92971 35136 ft 494 kts
2026-05-05 04:43 32.58635 -77.91781 35150 ft 494 kts
2026-05-05 04:43 32.65388 -77.90598 35136 ft 494 kts
2026-05-05 04:44 32.72185 -77.89405 35131 ft 494 kts
2026-05-05 04:44 32.78980 -77.88211 35130 ft 493 kts
2026-05-05 04:45 32.85766 -77.87016 35131 ft 493 kts
2026-05-05 04:45 32.92503 -77.85829 35126 ft 493 kts
2026-05-05 04:46 32.99288 -77.84631 35129 ft 493 kts
2026-05-05 04:46 33.06073 -77.83431 35126 ft 493 kts
2026-05-05 04:47 33.12857 -77.82230 35149 ft 494 kts
2026-05-05 04:47 33.19652 -77.81024 35140 ft 493 kts
2026-05-05 04:48 33.26391 -77.79826 35130 ft 492 kts
2026-05-05 04:48 33.33164 -77.78620 35124 ft 492 kts
2026-05-05 04:49 33.39929 -77.77415 35130 ft 491 kts
2026-05-05 04:49 33.46691 -77.76208 35119 ft 491 kts
2026-05-05 04:50 33.53406 -77.75007 35115 ft 491 kts
2026-05-05 04:50 33.60173 -77.73795 35126 ft 491 kts
2026-05-05 04:51 33.66940 -77.72581 35124 ft 492 kts
2026-05-05 04:51 33.73702 -77.71253 35117 ft 493 kts
2026-05-05 04:52 33.80405 -77.69755 35120 ft 493 kts
2026-05-05 04:52 33.87153 -77.68242 35142 ft 493 kts
2026-05-05 04:53 33.93901 -77.66756 35116 ft 492 kts
2026-05-05 04:53 34.00638 -77.65282 35111 ft 492 kts
2026-05-05 04:54 34.07316 -77.63819 35116 ft 491 kts
2026-05-05 04:54 34.14032 -77.62344 35124 ft 490 kts
2026-05-05 04:55 34.20730 -77.60870 35116 ft 489 kts
2026-05-05 04:55 34.27414 -77.59396 35116 ft 488 kts
2026-05-05 04:56 34.34045 -77.57933 35112 ft 487 kts
2026-05-05 04:56 34.40711 -77.56458 35120 ft 487 kts
2026-05-05 04:57 34.47371 -77.54983 35111 ft 487 kts
2026-05-05 04:57 34.53926 -77.52735 35111 ft 493 kts 17°
2026-05-05 04:58 34.60162 -77.49156 35119 ft 497 kts 22°
2026-05-05 04:58 34.66295 -77.45402 35113 ft 497 kts 22°
2026-05-05 04:59 34.72483 -77.41647 35110 ft 497 kts 22°
2026-05-05 04:59 34.78692 -77.37916 35112 ft 498 kts 21°
2026-05-05 05:00 34.84903 -77.34190 35131 ft 498 kts 21°
2026-05-05 05:00 34.91065 -77.30486 35118 ft 499 kts 21°
2026-05-05 05:01 34.97307 -77.26724 35120 ft 499 kts 21°
2026-05-05 05:01 35.03531 -77.22966 35118 ft 499 kts 21°
2026-05-05 05:02 35.09757 -77.19200 35129 ft 499 kts 21°
2026-05-05 05:02 35.15940 -77.15455 35102 ft 499 kts 21°
2026-05-05 05:03 35.22156 -77.11682 35100 ft 499 kts 21°
2026-05-05 05:03 35.28365 -77.07908 35103 ft 498 kts 21°
2026-05-05 05:04 35.34568 -77.04131 35108 ft 498 kts 21°
2026-05-05 05:04 35.40729 -77.00372 35106 ft 498 kts 21°
2026-05-05 05:05 35.46924 -76.96587 35106 ft 498 kts 21°
2026-05-05 05:05 35.53123 -76.92792 35119 ft 498 kts 21°
2026-05-05 05:06 35.59318 -76.88996 35105 ft 497 kts 21°
2026-05-05 05:06 35.65469 -76.85251 35071 ft 497 kts 21°
2026-05-05 05:07 35.71661 -76.81485 35092 ft 496 kts 21°
2026-05-05 05:07 35.77847 -76.77710 35108 ft 496 kts 21°
2026-05-05 05:08 35.84030 -76.73928 35079 ft 496 kts 21°
2026-05-05 05:08 35.90209 -76.70142 35094 ft 496 kts 21°
2026-05-05 05:09 35.96285 -76.66207 35095 ft 497 kts 24°
2026-05-05 05:09 36.02336 -76.62060 35117 ft 498 kts 24°
2026-05-05 05:10 36.08393 -76.57910 35110 ft 497 kts 24°
2026-05-05 05:10 36.14457 -76.53791 35097 ft 497 kts 23°
2026-05-05 05:11 36.20478 -76.49710 35086 ft 497 kts 23°
2026-05-05 05:11 36.26538 -76.45597 35084 ft 497 kts 23°
2026-05-05 05:12 36.32592 -76.41479 35073 ft 497 kts 23°
2026-05-05 05:12 36.38648 -76.37350 35074 ft 496 kts 23°
2026-05-05 05:13 36.44657 -76.33245 35095 ft 496 kts 24°
2026-05-05 05:13 36.50702 -76.29109 35074 ft 496 kts 24°
2026-05-05 05:14 36.56743 -76.24968 35070 ft 495 kts 24°
2026-05-05 05:14 36.62768 -76.20831 35060 ft 494 kts 24°
2026-05-05 05:15 36.68744 -76.16720 35082 ft 494 kts 24°
2026-05-05 05:15 36.74751 -76.12580 35060 ft 493 kts 24°
2026-05-05 05:16 36.80744 -76.08442 35044 ft 492 kts 24°
2026-05-05 05:16 36.86735 -76.04298 35044 ft 492 kts 24°
2026-05-05 05:17 36.92719 -76.00153 35058 ft 492 kts 24°
2026-05-05 05:17 36.98656 -75.96030 35046 ft 491 kts 24°
2026-05-05 05:18 37.04623 -75.91881 35045 ft 491 kts 24°
2026-05-05 05:18 37.10745 -75.88247 35042 ft 483 kts 15°
2026-05-05 05:19 37.17160 -75.85931 35031 ft 480 kts 10°
2026-05-05 05:19 37.23566 -75.83789 35034 ft 480 kts 10°
2026-05-05 05:20 37.30022 -75.81582 35024 ft 481 kts 10°
2026-05-05 05:20 37.36472 -75.79341 35034 ft 482 kts 11°
2026-05-05 05:21 37.42940 -75.77082 35024 ft 483 kts 11°
2026-05-05 05:21 37.49372 -75.74834 35024 ft 483 kts 11°
2026-05-05 05:22 37.55852 -75.72567 35032 ft 483 kts 11°
2026-05-05 05:22 37.62331 -75.70296 35027 ft 484 kts 11°
2026-05-05 05:23 37.68813 -75.68020 35028 ft 483 kts 11°
2026-05-05 05:23 37.75292 -75.65741 35022 ft 483 kts 11°
2026-05-05 05:24 37.81703 -75.63342 35011 ft 486 kts 17°
2026-05-05 05:24 37.87822 -75.59584 35016 ft 493 kts 28°
2026-05-05 05:25 37.93492 -75.54663 35023 ft 495 kts 31°
2026-05-05 05:25 37.99129 -75.49666 35014 ft 494 kts 31°
2026-05-05 05:26 38.04768 -75.44761 34999 ft 495 kts 31°
2026-05-05 05:26 38.10517 -75.39977 34992 ft 494 kts 28°
2026-05-05 05:27 38.16317 -75.35303 35001 ft 494 kts 29°
2026-05-05 05:27 38.25232 -75.28856 35004 ft 488 kts 17°
2026-05-05 05:28 38.31675 -75.26585 35005 ft 481 kts
2026-05-05 05:28 38.38286 -75.25329 35010 ft 481 kts
2026-05-05 05:29 38.44902 -75.24011 35012 ft 481 kts
2026-05-05 05:29 38.51515 -75.22620 34996 ft 482 kts
2026-05-05 05:30 38.58076 -75.21214 34987 ft 481 kts
2026-05-05 05:30 38.64680 -75.19802 34990 ft 481 kts
2026-05-05 05:31 38.71079 -75.17219 34981 ft 487 kts 23°
2026-05-05 05:31 38.76788 -75.12514 34982 ft 490 kts 35°
2026-05-05 05:32 38.82122 -75.07151 34974 ft 491 kts 36°
2026-05-05 05:32 38.87509 -75.01771 34990 ft 491 kts 35°
2026-05-05 05:33 38.92925 -74.96438 34783 ft 492 kts 35°
2026-05-05 05:33 38.95703 -74.93715 33452 ft 508 kts 35°
2026-05-05 05:33 38.97566 -74.91885 32631 ft 511 kts 35°
2026-05-05 05:34 39.00389 -74.89104 31711 ft 510 kts 35°
2026-05-05 05:34 39.04092 -74.85449 30678 ft 505 kts 36°
2026-05-05 05:34 39.06864 -74.82708 30063 ft 499 kts 37°
2026-05-05 05:34 39.09602 -74.80000 29319 ft 493 kts 37°
2026-05-05 05:35 39.12269 -74.77275 28689 ft 487 kts 39°
2026-05-05 05:35 39.14850 -74.74493 28085 ft 481 kts 39°
2026-05-05 05:35 39.16528 -74.72649 27694 ft 477 kts 40°
2026-05-05 05:35 39.19032 -74.69886 27106 ft 472 kts 40°
2026-05-05 05:36 39.21526 -74.67146 26517 ft 468 kts 39°
2026-05-05 05:36 39.23998 -74.64446 25958 ft 464 kts 39°
2026-05-05 05:36 39.27244 -74.60920 25202 ft 459 kts 39°
2026-05-05 05:36 39.28893 -74.59134 24830 ft 456 kts 39°
2026-05-05 05:37 39.31313 -74.56508 24269 ft 453 kts 39°
2026-05-05 05:37 39.33686 -74.53931 23738 ft 450 kts 39°
2026-05-05 05:37 39.36076 -74.51331 23120 ft 448 kts 39°
2026-05-05 05:37 39.38452 -74.48743 22522 ft 445 kts 39°
2026-05-05 05:38 39.40807 -74.46176 21978 ft 441 kts 39°
2026-05-05 05:38 39.43143 -74.43628 21450 ft 438 kts 39°
2026-05-05 05:38 39.46210 -74.40280 20742 ft 434 kts 39°
2026-05-05 05:38 39.47761 -74.38585 20388 ft 432 kts 39°
2026-05-05 05:39 39.50050 -74.36083 19877 ft 429 kts 39°
2026-05-05 05:39 39.52325 -74.33593 19352 ft 426 kts 39°
2026-05-05 05:39 39.54553 -74.31152 18862 ft 424 kts 39°
2026-05-05 05:39 39.56797 -74.28693 18361 ft 421 kts 39°
2026-05-05 05:40 39.59026 -74.26247 17846 ft 418 kts 39°
2026-05-05 05:40 39.61230 -74.23826 17465 ft 415 kts 39°
2026-05-05 05:40 39.63440 -74.21398 17091 ft 417 kts 39°
2026-05-05 05:40 39.65663 -74.18954 16718 ft 419 kts 39°
2026-05-05 05:41 39.67883 -74.16510 16349 ft 418 kts 39°
2026-05-05 05:41 39.70090 -74.14077 15960 ft 415 kts 39°
2026-05-05 05:41 39.72282 -74.11659 15596 ft 412 kts 39°
2026-05-05 05:41 39.74425 -74.09293 15235 ft 409 kts 38°
2026-05-05 05:42 39.76584 -74.06907 14874 ft 406 kts 38°
2026-05-05 05:42 39.78730 -74.04533 14523 ft 404 kts 38°
2026-05-05 05:42 39.80865 -74.02171 14170 ft 402 kts 38°
2026-05-05 05:42 39.82987 -73.99821 13803 ft 400 kts 38°
2026-05-05 05:43 39.85162 -73.97607 13404 ft 394 kts 30°
2026-05-05 05:43 39.87519 -73.95835 13046 ft 390 kts 25°
2026-05-05 05:43 39.89932 -73.94246 12686 ft 386 kts 23°
2026-05-05 05:43 39.92239 -73.92733 12333 ft 366 kts 24°
2026-05-05 05:44 39.94432 -73.91248 12002 ft 345 kts 24°
2026-05-05 05:44 39.96492 -73.89813 11712 ft 327 kts 25°
2026-05-05 05:44 39.98441 -73.88435 11420 ft 311 kts 25°
2026-05-05 05:44 40.00328 -73.87100 11192 ft 308 kts 25°
2026-05-05 05:45 40.02202 -73.85770 11067 ft 304 kts 25°
2026-05-05 05:45 40.04009 -73.84351 11005 ft 303 kts 29°
2026-05-05 05:45 40.05786 -73.82864 11009 ft 305 kts 29°
2026-05-05 05:45 40.07583 -73.81351 11007 ft 308 kts 29°
2026-05-05 05:46 40.09385 -73.79830 11007 ft 309 kts 29°
2026-05-05 05:46 40.11168 -73.78325 11002 ft 309 kts 29°
2026-05-05 05:46 40.12977 -73.76795 11000 ft 310 kts 29°
2026-05-05 05:46 40.14783 -73.75267 10995 ft 309 kts 29°
2026-05-05 05:47 40.16589 -73.73740 10997 ft 309 kts 30°
2026-05-05 05:47 40.18392 -73.72216 10996 ft 308 kts 29°
2026-05-05 05:47 40.20191 -73.70698 10996 ft 308 kts 30°
2026-05-05 05:47 40.21994 -73.69182 10991 ft 307 kts 29°
2026-05-05 05:48 40.23792 -73.67673 10992 ft 307 kts 30°
2026-05-05 05:48 40.25564 -73.66188 10992 ft 307 kts 29°
2026-05-05 05:48 40.27360 -73.64683 10993 ft 306 kts 29°
2026-05-05 05:48 40.29138 -73.63173 10873 ft 304 kts 29°
2026-05-05 05:49 40.30905 -73.61665 10625 ft 302 kts 30°
2026-05-05 05:49 40.32666 -73.60158 10289 ft 302 kts 29°
2026-05-05 05:49 40.34415 -73.58663 9964 ft 299 kts 28°
2026-05-05 05:49 40.36145 -73.57176 9598 ft 296 kts 29°
2026-05-05 05:50 40.37864 -73.55707 9245 ft 294 kts 29°
2026-05-05 05:50 40.39568 -73.54257 8875 ft 291 kts 30°
2026-05-05 05:50 40.41237 -73.52844 8521 ft 288 kts 29°
2026-05-05 05:50 40.42913 -73.51426 8149 ft 286 kts 29°
2026-05-05 05:51 40.44581 -73.50015 7798 ft 284 kts 29°
2026-05-05 05:51 40.46237 -73.48613 7454 ft 283 kts 29°
2026-05-05 05:51 40.47885 -73.47218 7103 ft 281 kts 29°
2026-05-05 05:51 40.49525 -73.45830 6768 ft 280 kts 29°
2026-05-05 05:52 40.51163 -73.44444 6426 ft 279 kts 29°
2026-05-05 05:52 40.52795 -73.43059 6076 ft 279 kts 29°
2026-05-05 05:52 40.54428 -73.41671 5726 ft 280 kts 29°
2026-05-05 05:52 40.56043 -73.40299 5380 ft 281 kts 29°
2026-05-05 05:53 40.57689 -73.38897 5052 ft 282 kts 29°
2026-05-05 05:53 40.59334 -73.37493 4801 ft 281 kts 29°
2026-05-05 05:53 40.60973 -73.36096 4567 ft 281 kts 29°
2026-05-05 05:53 40.62625 -73.34688 4309 ft 285 kts 29°
2026-05-05 05:54 40.64302 -73.33268 4083 ft 287 kts 29°
2026-05-05 05:54 40.66074 -73.32212 3792 ft 276 kts
2026-05-05 05:54 40.67927 -73.32303 3545 ft 262 kts 335°
2026-05-05 05:54 40.69442 -73.33452 3310 ft 247 kts 312°
2026-05-05 05:55 40.70674 -73.34969 3115 ft 244 kts 308°
2026-05-05 05:55 40.71868 -73.36531 3068 ft 241 kts 307°
2026-05-05 05:55 40.73050 -73.38097 3021 ft 242 kts 307°
2026-05-05 05:55 40.74239 -73.39683 3003 ft 244 kts 307°
2026-05-05 05:56 40.75433 -73.41276 3005 ft 245 kts 307°
2026-05-05 05:56 40.76608 -73.42837 2986 ft 233 kts 307°
2026-05-05 05:56 40.77718 -73.44299 2966 ft 217 kts 307°
2026-05-05 05:56 40.78773 -73.45679 2986 ft 213 kts 307°
2026-05-05 05:57 40.79834 -73.47050 3031 ft 213 kts 307°
2026-05-05 05:57 40.80895 -73.48413 3035 ft 213 kts 307°
2026-05-05 05:57 40.81966 -73.49780 2986 ft 214 kts 307°
2026-05-05 05:57 40.83019 -73.51128 2978 ft 214 kts 307°
2026-05-05 05:58 40.84083 -73.52499 2972 ft 214 kts 307°
2026-05-05 05:58 40.85084 -73.53906 2941 ft 203 kts 294°
2026-05-05 05:58 40.85417 -73.55623 2972 ft 192 kts 259°
2026-05-05 05:58 40.84952 -73.57251 2990 ft 192 kts 240°
2026-05-05 05:59 40.84267 -73.58761 2979 ft 190 kts 238°
2026-05-05 05:59 40.83491 -73.60141 2960 ft 186 kts 223°
2026-05-05 05:59 40.82471 -73.61183 2989 ft 188 kts 219°
2026-05-05 05:59 40.81401 -73.62166 2979 ft 191 kts 216°
2026-05-05 06:00 40.80278 -73.63097 2975 ft 191 kts 216°
2026-05-05 06:00 40.79143 -73.64002 2981 ft 191 kts 214°
2026-05-05 06:00 40.78049 -73.64862 2977 ft 171 kts 214°
2026-05-05 06:00 40.77060 -73.65638 2843 ft 161 kts 215°
2026-05-05 06:01 40.76123 -73.66377 2653 ft 155 kts 215°
2026-05-05 06:01 40.75192 -73.67111 2459 ft 157 kts 215°
2026-05-05 06:01 40.74256 -73.67849 2253 ft 156 kts 214°
2026-05-05 06:01 40.73331 -73.68575 2031 ft 153 kts 214°
2026-05-05 06:02 40.72422 -73.69289 1821 ft 152 kts 213°
2026-05-05 06:02 40.71552 -73.69971 1626 ft 142 kts 214°
2026-05-05 06:02 40.70759 -73.70595 1436 ft 124 kts 213°
2026-05-05 06:02 40.70021 -73.71175 1302 ft 125 kts 213°
2026-05-05 06:03 40.69280 -73.71759 1115 ft 124 kts 213°
2026-05-05 06:03 40.68534 -73.72343 959 ft 126 kts 211°
2026-05-05 06:03 40.67777 -73.72936 772 ft 128 kts 211°
2026-05-05 06:03 40.66975 -73.73560 651 ft 136 kts 210°
2026-05-05 06:04 40.66155 -73.74201 426 ft 138 kts 210°
2026-05-05 06:04 40.65332 -73.74847 255 ft 138 kts 209°
2026-05-05 06:04 40.64515 -73.75494 53 ft 136 kts 210°
2026-05-05 06:04 40.63751 -73.76091 31 ft 111 kts 211°
2026-05-05 06:05 40.63250 -73.76481 26 ft 53 kts 211°
2026-05-05 06:05 40.63034 -73.76682 30 ft 34 kts 226°
2026-05-05 06:05 40.62934 -73.76880 28 ft 17 kts 242°
2026-05-05 06:05 40.62943 -73.76999 32 ft 14 kts 299°
2026-05-05 06:06 40.62991 -73.77108 28 ft 14 kts 300°
2026-05-05 06:06 40.63040 -73.77216 31 ft 14 kts 301°
2026-05-05 06:06 40.63090 -73.77324 32 ft 14 kts 302°
2026-05-05 06:06 40.63138 -73.77431 33 ft 14 kts 300°
2026-05-05 06:07 40.63188 -73.77541 34 ft 14 kts 301°
2026-05-05 06:07 40.63244 -73.77667 32 ft 17 kts 300°
2026-05-05 06:07 40.63303 -73.77797 32 ft 14 kts 302°
2026-05-05 06:07 40.63375 -73.77823 31 ft 12 kts 32°
2026-05-05 06:08 40.63442 -73.77757 30 ft 14 kts 30°
2026-05-05 06:08 40.63545 -73.77678 31 ft 19 kts 31°
2026-05-05 06:08 40.63659 -73.77589 30 ft 19 kts 31°
2026-05-05 06:08 40.63720 -73.77542 28 ft 19 kts 31°
2026-05-05 06:09 40.63776 -73.77498 25 ft 19 kts 31°
2026-05-05 06:09 40.63888 -73.77410 28 ft 18 kts 31°
2026-05-05 06:09 40.63993 -73.77327 31 ft 18 kts 30°
2026-05-05 06:09 40.64099 -73.77245 29 ft 18 kts 31°
2026-05-05 06:10 40.64204 -73.77163 29 ft 18 kts 31°
2026-05-05 06:10 40.64310 -73.77080 27 ft 18 kts 31°
2026-05-05 06:10 40.64421 -73.77003 30 ft 18 kts 18°
2026-05-05 06:10 40.64531 -73.76974 25 ft 15 kts 24°
2026-05-05 06:11 40.64621 -73.76901 23 ft 16 kts 31°
2026-05-05 06:11 40.64715 -73.76826 26 ft 16 kts 31°
2026-05-05 06:11 40.64806 -73.76754 29 ft 12 kts 31°
2026-05-05 06:11 40.64863 -73.76737 31 ft 8 kts 333°
2026-05-05 06:12 40.64897 -73.76802 31 ft 10 kts 300°
2026-05-05 06:12 40.64943 -73.76903 29 ft 15 kts 301°
2026-05-05 06:12 40.64997 -73.77022 31 ft 15 kts 301°
2026-05-05 06:12 40.65051 -73.77142 30 ft 16 kts 301°
2026-05-05 06:13 40.65109 -73.77270 29 ft 16 kts 301°
2026-05-05 06:13 40.65167 -73.77397 30 ft 16 kts 301°
2026-05-05 06:13 40.65225 -73.77524 24 ft 16 kts 301°
2026-05-05 06:13 40.65283 -73.77652 29 ft 16 kts 301°
2026-05-05 06:14 40.65340 -73.77778 29 ft 16 kts 301°
2026-05-05 06:14 40.65398 -73.77907 30 ft 16 kts 301°
2026-05-05 06:14 40.65455 -73.78033 27 ft 16 kts 301°
2026-05-05 06:14 40.65513 -73.78160 29 ft 16 kts 301°
2026-05-05 06:15 40.65571 -73.78288 29 ft 16 kts 301°
2026-05-05 06:15 40.65629 -73.78415 26 ft 16 kts 301°
2026-05-05 06:15 40.65684 -73.78538 26 ft 16 kts 301°
2026-05-05 06:15 40.65734 -73.78638 25 ft 9 kts 317°
2026-05-05 06:16 40.65793 -73.78628 26 ft 9 kts 30°
2026-05-05 06:16 40.65848 -73.78585 26 ft 9 kts 31°
2026-05-05 06:16 40.65904 -73.78541 27 ft 9 kts 31°
2026-05-05 06:16 40.65949 -73.78505 29 ft 9 kts 33°
2026-05-05 06:17 40.65955 -73.78500 29 ft 9 kts 33°
2026-05-05 06:17 40.65986 -73.78471 29 ft 8 kts 36°
2026-05-05 06:17 40.66020 -73.78437 29 ft 6 kts 38°
2026-05-05 06:17 40.66048 -73.78413 29 ft 2 kts 31°
2026-05-05 06:18 40.66058 -73.78405 26 ft 1 kts 31°
2026-05-05 06:18 40.66061 -73.78403 26 ft 0 kts 31°